LVKFQ KMCO-KPBI

Flight info

Callsign LVKFQ
Flight time N/A
Altitude 23000
Route DDANY3 BORRD CPTAN3
Aircraft CL60/M-SBDE1E2E3FGHIJ1J4J5J7M3RWXYZ/LB1V1D1

Departure

Time 2026-04-26 19:34
Airport Orlando International Airport (KMCO)

Arrival

Time N/A
Airport Palm Beach International Airport (KPBI)
Time Latitude Longitude Altitude Speed Heading
2026-04-26 18:55 28.42010 -81.33063 103 ft 0 kts
2026-04-26 19:28 28.42032 -81.33058 103 ft 5 kts 20°
2026-04-26 19:28 28.42077 -81.33021 103 ft 10 kts 53°
2026-04-26 19:28 28.42146 -81.32955 103 ft 15 kts 30°
2026-04-26 19:29 28.42254 -81.32915 103 ft 18 kts
2026-04-26 19:29 28.42357 -81.32917 103 ft 15 kts 359°
2026-04-26 19:29 28.42481 -81.32918 103 ft 19 kts
2026-04-26 19:29 28.42633 -81.32918 103 ft 22 kts 358°
2026-04-26 19:30 28.42781 -81.32921 103 ft 17 kts
2026-04-26 19:30 28.42917 -81.32922 103 ft 21 kts 358°
2026-04-26 19:30 28.43058 -81.32923 103 ft 19 kts 359°
2026-04-26 19:30 28.43157 -81.32925 103 ft 22 kts 359°
2026-04-26 19:31 28.43381 -81.32926 103 ft 22 kts 360°
2026-04-26 19:31 28.43541 -81.32928 103 ft 21 kts 359°
2026-04-26 19:31 28.43654 -81.32918 103 ft 6 kts 49°
2026-04-26 19:31 28.43669 -81.32855 103 ft 10 kts 90°
2026-04-26 19:32 28.43669 -81.32790 103 ft 0 kts 90°
2026-04-26 19:33 28.43669 -81.32782 103 ft 3 kts 90°
2026-04-26 19:33 28.43665 -81.32735 103 ft 8 kts 104°
2026-04-26 19:33 28.43613 -81.32683 103 ft 12 kts 171°
2026-04-26 19:33 28.43582 -81.32682 103 ft 15 kts 181°
2026-04-26 19:34 28.43106 -81.32677 104 ft 124 kts 182°
2026-04-26 19:34 28.41943 -81.32662 274 ft 196 kts 180°
2026-04-26 19:34 28.40500 -81.32662 1169 ft 224 kts 183°
2026-04-26 19:34 28.38834 -81.32610 1788 ft 250 kts 177°
2026-04-26 19:35 28.37088 -81.32206 2197 ft 267 kts 165°
2026-04-26 19:35 28.35383 -81.31373 2940 ft 273 kts 153°
2026-04-26 19:35 28.33882 -81.30001 3769 ft 278 kts 129°
2026-04-26 19:35 28.33052 -81.28027 4581 ft 285 kts 108°
2026-04-26 19:36 28.32531 -81.26015 5371 ft 287 kts 106°
2026-04-26 19:36 28.32399 -81.25487 5578 ft 288 kts 106°
2026-04-26 19:36 28.31445 -81.21658 7080 ft 294 kts 106°
2026-04-26 19:36 28.30886 -81.19479 7932 ft 298 kts 106°
2026-04-26 19:37 28.30283 -81.17188 8843 ft 302 kts 106°
2026-04-26 19:37 28.29660 -81.14870 9750 ft 307 kts 106°
2026-04-26 19:37 28.29027 -81.12533 10670 ft 312 kts 106°
2026-04-26 19:37 28.28393 -81.10196 11570 ft 317 kts 106°
2026-04-26 19:38 28.27778 -81.07924 12451 ft 322 kts 106°
2026-04-26 19:38 28.27153 -81.05592 13324 ft 327 kts 105°
2026-04-26 19:38 28.26490 -81.03117 14264 ft 332 kts 106°
2026-04-26 19:38 28.25837 -81.00669 15175 ft 337 kts 106°
2026-04-26 19:39 28.25174 -80.98184 16122 ft 342 kts 105°
2026-04-26 19:39 28.24483 -80.95574 17152 ft 346 kts 105°
2026-04-26 19:39 28.23786 -80.92974 18175 ft 351 kts 106°
2026-04-26 19:39 28.23305 -80.90253 19252 ft 354 kts 90°
2026-04-26 19:40 28.23417 -80.87425 20382 ft 357 kts 84°
2026-04-26 19:40 28.23603 -80.84694 21478 ft 359 kts 84°
2026-04-26 19:40 28.23795 -80.81832 22405 ft 368 kts 87°
2026-04-26 19:40 28.23511 -80.78954 22827 ft 384 kts 102°
2026-04-26 19:41 28.22912 -80.75964 22930 ft 381 kts 102°
2026-04-26 19:41 28.22337 -80.73074 22936 ft 379 kts 102°
2026-04-26 19:41 28.21699 -80.70209 22948 ft 377 kts 109°
2026-04-26 19:41 28.21384 -80.69304 22941 ft 377 kts 115°
2026-04-26 19:42 28.18728 -80.65454 22899 ft 373 kts 143°
2026-04-26 19:42 28.16613 -80.63782 22893 ft 371 kts 148°
2026-04-26 19:42 28.14483 -80.62162 22899 ft 372 kts 147°
2026-04-26 19:42 28.12570 -80.60700 22903 ft 373 kts 147°
2026-04-26 19:43 28.10474 -80.59099 22901 ft 373 kts 147°
2026-04-26 19:43 28.06583 -80.56126 22900 ft 373 kts 147°